Regional Weather Roundup
Issued by NWS Nashville, TN

Home | Current Version | Previous Version | Text Only | Print | Product List | Glossary On
Versions: 1 2 3 4 5 6 7 8 9 10 11 12 13 14 15 16 17 18 19 20 21 22 23 24 25 26 27 28 29 30 31 32 33 34 35 36 37 38 39 40 41 42 43 44 45 46 47 48 49 50
000
ASUS44 KOHX 282215
RWROHX
MIDDLE TENNESSEE HOURLY WEATHER ROUNDUP
NATIONAL WEATHER SERVICE NASHVILLE TN
400 PM CST FRI NOV 28 2014

NOTE: "FAIR" INDICATES FEW OR NO CLOUDS BELOW 12,000 FEET WITH
NO SIGNIFICANT WEATHER AND/OR OBSTRUCTIONS TO VISIBILITY.

* THESE REPORTS ARE NOT UNDER NWS QUALITY CONTROL AND MAY NOT
  REPORT WEATHER SUCH AS PRECIPITATION AND FOG.


TNZ005>011-023>034-057-059-062>066-078-080-282300
...NORTHERN MIDDLE TENNESSEE...

CITY           SKY/WX    TMP DP  RH WIND       PRES   REMARKS
CLARKSVILLE    CLEAR     47  24  40 S9        30.18F
CROSSVILLE     CLEAR     41  18  39 S5        30.22F
GALLATIN         N/A     45  21  38 S3        30.23F
DICKSON        CLEAR     46  23  39 S9        30.18F
LEBANON        CLEAR     46  20  36 S8        30.21F
LIVINGSTON     CLEAR     60  15  17 SW6       30.21F
NASHVILLE      CLEAR     46  22  38 S10       30.22F
WEST NASHVILLE   N/A     45  19  36 S9        30.21F
PORTLAND         N/A     43  18  36 S10       30.20F
SPARTA         CLEAR     45  21  39 SW5       30.22F
$$
TNZ056-058-060-061-075>077-079-093>097-282300
...SOUTHERN MIDDLE TENNESSEE...

CITY           SKY/WX    TMP DP  RH WIND       PRES   REMARKS
COLUMBIA       CLEAR     46  25  42 S10       30.20F
LEWISBURG      CLEAR     47  22  37 S8        30.23F
MCMINNVILLE    CLEAR     46  18  31 CALM      30.23F
MURFREESBORO   CLEAR     48  21  34 S8        30.23F
SHELBYVILLE    CLEAR     46  21  36 S9        30.24F
TULLAHOMA      CLEAR     45  16  31 S6        30.24S
WINCHESTER     CLEAR     46  18  31 SE10      30.25S
$$


...KEY TO REMARKS...
VSB - VISIBILITY IN MILES
WCI - WIND CHILL INDEX
HX  - HEAT INDEX



USA.gov is the U.S. government's official web portal to all federal, state and local government web resources and services.